DW5893 Weather Reports


time (UTC)temp
F
wind
direction
speed
knots
gust
knots
rain 1hr
in
rain 24hr
in
rain mn
in
humidity
%
barometer
mb
20210723163534 76 336 6.1 0.0 0.00 0.00 0.02 53 999.5
20210723163106 76 317 5.2 0.0 0.00 0.00 0.02 54 999.7
20210723162532 76 338 6.1 0.0 0.00 0.00 0.02 53 999.7
20210723162033 76 307 6.1 0.0 0.00 0.00 0.02 53 999.7
20210723161603 75 355 5.2 0.0 0.00 0.00 0.02 56 999.9
20210723161029 74 306 4.3 0.0 0.00 0.00 0.02 57 999.9
20210723160531 73 327 3.5 0.0 0.00 0.00 0.02 62 999.9
20210723155534 73 349 3.5 0.0 0.00 0.00 0.02 65 999.7
20210723155025 72 333 1.7 0.0 0.00 0.00 0.02 65 999.7
20210723154522 72 257 1.7 0.0 0.00 0.00 0.02 68 999.8
20210723154020 72 300 1.7 0.0 0.00 0.00 0.02 68 999.8
20210723153534 72 241 1.7 0.0 0.00 0.00 0.02 70 999.4
20210723153033 71 205 2.6 0.0 0.00 0.00 0.02 72 999.2
20210723152519 70 108 2.6 0.0 0.00 0.00 0.02 69 999.1
20210723152022 70 161 2.6 0.0 0.00 0.00 0.02 70 999.4
20210723151517 69 92 3.5 0.0 0.00 0.00 0.02 73 999.1
20210723151019 69 138 4.3 0.0 0.00 0.00 0.02 75 999.0
20210723150530 68 102 3.5 0.0 0.00 0.00 0.02 75 999.0
20210723145514 66 18 2.6 0.0 0.00 0.00 0.02 79 999.0
20210723145014 65 55 0.9 0.0 0.00 0.00 0.02 80 998.7
20210723144514 64 79 1.7 0.0 0.00 0.00 0.02 83 998.5
20210723144014 64 38 5.2 0.0 0.00 0.00 0.02 83 998.4
20210723143513 64 24 7.8 0.0 0.00 0.00 0.02 81 998.4
20210723143013 66 46 6.1 0.0 0.00 0.00 0.02 78 997.8
20210723142520 67 58 4.3 0.0 0.00 0.00 0.00 72 1000.6
20210723142012 67 259 5.2 0.0 0.00 0.00 0.00 72 1001.0
20210723141513 68 350 6.1 0.0 0.00 0.00 0.00 71 1000.3
20210723141016 68 344 6.1 0.0 0.00 0.00 0.00 74 1000.4
20210723140510 68 328 5.2 0.0 0.00 0.00 0.00 74 1000.4
20210723135510 69 333 3.5 0.0 0.00 0.00 0.00 75 999.7
20210723135025 68 341 5.2 0.0 0.00 0.00 0.00 75 1000.1
20210723134511 68 315 4.3 0.0 0.00 0.00 0.00 76 1000.0
20210723134007 67 341 1.7 0.0 0.00 0.00 0.00 81 1000.1
20210723133515 66 204 0.9 0.0 0.00 0.00 0.00 82 999.4
20210723133028 66 178 0.9 0.0 0.00 0.00 0.00 82 999.3
20210723132509 65 170 0.9 0.0 0.00 0.00 0.00 83 999.4
20210723132004 65 171 1.7 0.0 0.00 0.00 0.00 83 999.3
20210723131504 65 157 1.7 0.0 0.00 0.00 0.00 83 999.3
20210723131004 64 215 0.0 0.0 0.00 0.00 0.00 82 999.4
20210723130503 64 215 0.9 0.0 0.00 0.00 0.00 82 999.3
20210723125534 63 229 0.9 0.0 0.00 0.00 0.00 84 999.9
20210723125055 62 232 0.9 0.0 0.00 0.00 0.00 84 999.8
20210723124533 62 232 1.7 0.0 0.00 0.00 0.00 85 999.7
20210723124029 61 254 0.9 0.0 0.00 0.00 0.00 86 999.5
20210723123527 60 195 0.0 0.0 0.00 0.00 0.00 86 999.0
20210723123109 60 195 0.0 0.0 0.00 0.00 0.00 87 998.5
20210723122525 59 195 0.0 0.0 0.00 0.00 0.00 88 998.6
20210723122025 59 195 0.0 0.0 0.00 0.00 0.00 88 998.6
20210723121548 58 195 0.0 0.0 0.00 0.00 0.00 88 998.5
20210723121030 58 195 0.0 0.0 0.00 0.00 0.00 88 998.4
20210723120532 58 195 0.0 0.0 0.00 0.00 0.00 88 998.4
20210723115553 57 195 0.0 0.0 0.00 0.00 0.00 88 998.4
20210723115048 57 195 0.0 0.0 0.00 0.00 0.00 89 998.4
20210723114746 57 195 0.0 0.0 0.00 0.00 0.00 89 998.2
20210723114048 57 195 0.9 0.0 0.00 0.00 0.00 88 998.1
20210723113548 57 195 1.7 0.0 0.00 0.00 0.00 88 998.2
20210723113128 57 196 1.7 0.0 0.00 0.00 0.00 88 998.3
20210723112546 57 209 0.9 0.0 0.00 0.00 0.00 87 998.1
20210723112046 57 209 0.0 0.0 0.00 0.00 0.00 87 998.2
20210723111605 57 208 0.9 0.0 0.00 0.00 0.00 86 998.2
20210723111048 58 208 0.9 0.0 0.00 0.00 0.00 85 998.0
20210723110603 58 207 0.9 0.0 0.00 0.00 0.00 86 998.0
20210723110103 58 207 0.9 0.0 0.00 0.00 0.00 85 998.1
20210723105512 58 207 0.9 0.0 0.00 0.00 0.00 86 998.1
20210723105012 58 207 0.0 0.0 0.00 0.00 0.00 86 998.0
20210723104534 58 207 0.0 0.0 0.00 0.00 0.00 86 997.9
20210723104011 59 207 0.0 0.0 0.00 0.00 0.00 85 997.9
20210723103511 59 207 0.0 0.0 0.00 0.00 0.00 84 997.9
20210723103052 59 207 0.0 0.0 0.00 0.00 0.00 84 997.9
20210723102511 59 211 0.0 0.0 0.00 0.00 0.00 86 997.8
20210723102018 59 211 0.9 0.0 0.00 0.00 0.00 86 997.8
20210723101522 59 211 0.9 0.0 0.00 0.00 0.00 84 997.7
20210723101008 60 211 0.9 0.0 0.00 0.00 0.00 84 997.6
20210723100507 60 211 1.7 0.0 0.00 0.00 0.00 83 997.5
20210723095543 61 252 1.7 0.0 0.00 0.00 0.00 82 997.1
20210723095042 61 297 0.9 0.0 0.00 0.00 0.00 82 997.1
20210723094555 61 340 0.0 0.0 0.00 0.00 0.00 82 997.1
20210723094042 62 339 0.0 0.0 0.00 0.00 0.00 82 997.2
20210723093557 62 340 0.0 0.0 0.00 0.00 0.00 82 997.3
20210723093213 62 340 0.0 0.0 0.00 0.00 0.00 82 997.3
20210723092541 61 340 0.0 0.0 0.00 0.00 0.00 83 997.1
20210723092041 61 340 0.9 0.0 0.00 0.00 0.00 83 997.2
20210723091559 61 333 1.7 0.0 0.00 0.00 0.00 83 997.2
20210723091041 61 333 1.7 0.0 0.00 0.00 0.00 82 997.1
20210723090541 61 333 1.7 0.0 0.00 0.00 0.00 81 997.3
20210723090052 62 331 1.7 0.0 0.00 0.00 0.00 81 997.0
20210723085537 62 331 1.7 0.0 0.00 0.00 0.00 81 997.0
20210723085037 62 335 1.7 0.0 0.00 0.00 0.00 79 996.9
20210723084716 62 328 1.7 0.0 0.00 0.00 0.00 78 996.9
20210723084037 63 155 0.0 0.0 0.00 0.00 0.00 77 996.8
20210723083534 63 157 0.0 0.0 0.00 0.00 0.00 76 996.8
20210723083059 63 157 0.0 0.0 0.00 0.00 0.00 76 996.6
20210723082532 64 157 0.0 0.0 0.00 0.00 0.00 75 996.6
20210723082034 64 157 0.0 0.0 0.00 0.00 0.00 74 996.5
20210723081549 64 157 0.0 0.0 0.00 0.00 0.00 74 996.5
20210723081052 65 157 0.0 0.0 0.00 0.00 0.00 74 996.4
20210723080529 65 157 0.0 0.0 0.00 0.00 0.00 73 996.2
20210723080041 65 157 0.0 0.0 0.00 0.00 0.00 73 996.2
20210723075533 65 157 0.0 0.0 0.00 0.00 0.00 72 996.3
20210723075028 66 157 0.0 0.0 0.00 0.00 0.00 72 996.4
20210723074530 66 157 0.0 0.0 0.00 0.00 0.00 70 996.5
20210723074028 68 157 0.0 0.0 0.00 0.00 0.00 68 996.5
20210723073522 69 157 0.9 0.0 0.00 0.00 0.00 67 996.6
20210723073022 69 157 1.7 0.0 0.00 0.00 0.00 66 996.5
20210723072538 70 168 1.7 0.0 0.00 0.00 0.00 65 996.6
20210723072025 70 179 2.6 0.0 0.00 0.00 0.00 64 996.5
20210723071627 70 179 1.7 0.0 0.00 0.00 0.00 64 996.6
20210723071027 70 159 0.9 0.0 0.00 0.00 0.00 64 996.6
20210723070521 70 169 0.9 0.0 0.00 0.00 0.00 64 996.6
20210723070028 70 167 0.9 0.0 0.00 0.00 0.00 64 996.6
20210723065523 70 172 0.9 0.0 0.00 0.00 0.00 64 996.6
20210723065021 70 159 2.6 0.0 0.00 0.00 0.00 63 996.6
20210723064606 70 170 4.3 0.0 0.00 0.00 0.00 63 996.6
20210723064030 70 167 4.3 0.0 0.00 0.00 0.00 64 996.4
20210723063520 70 186 4.3 0.0 0.00 0.00 0.00 64 996.4
20210723063028 70 171 4.3 0.0 0.00 0.00 0.00 64 996.4
20210723062520 70 200 3.5 0.0 0.00 0.00 0.00 64 996.7
20210723062020 70 184 2.6 0.0 0.00 0.00 0.00 64 996.7
20210723061529 70 199 2.6 0.0 0.00 0.00 0.00 64 996.8
20210723061038 70 157 2.6 0.0 0.00 0.00 0.00 64 996.9
20210723060531 70 162 2.6 0.0 0.00 0.00 0.00 64 996.9
20210723060037 71 161 3.5 0.0 0.00 0.00 0.00 63 997.1
20210723055521 71 165 4.3 0.0 0.00 0.00 0.00 63 997.1
20210723055021 71 175 5.2 0.0 0.00 0.00 0.00 63 996.9
20210723054615 71 146 6.1 0.0 0.00 0.00 0.00 64 996.7
20210723054028 71 184 7.0 0.0 0.00 0.00 0.00 63 996.6
20210723053519 71 167 7.8 0.0 0.00 0.00 0.00 64 996.6
20210723053044 71 190 7.0 0.0 0.00 0.00 0.00 64 996.3
20210723052521 70 171 6.1 0.0 0.00 0.00 0.00 65 996.1
20210723052021 69 169 4.3 0.0 0.00 0.00 0.00 71 995.9
20210723051524 69 187 2.6 0.0 0.00 0.00 0.00 72 995.6
20210723051043 70 205 1.7 0.0 0.00 0.00 0.00 70 995.7
20210723050547 70 164 2.6 0.0 0.00 0.00 0.00 70 995.6
20210723050026 70 138 2.6 0.0 0.00 0.00 0.00 71 995.8
20210723045515 70 151 2.6 0.0 0.00 0.00 0.00 71 995.9
20210723045022 70 146 3.5 0.0 0.00 0.00 0.00 71 996.3
20210723044542 71 73 4.3 0.0 0.00 0.00 0.00 68 996.6
20210723044034 73 79 4.3 0.0 0.00 0.00 0.00 63 999.3
20210723043524 73 233 3.5 0.0 0.00 0.00 0.00 60 1000.6
20210723043124 73 225 1.7 0.0 0.00 0.00 0.00 58 1000.2
20210723042514 74 283 1.7 0.0 0.00 0.00 0.00 58 999.8
20210723042040 73 271 1.7 0.0 0.00 0.00 0.00 57 1000.0
20210723041519 73 282 1.7 0.0 0.00 0.00 0.00 58 1000.3
20210723041018 73 311 1.7 0.0 0.00 0.00 0.00 59 1000.4
20210723040513 73 298 1.7 0.0 0.00 0.00 0.00 59 1000.1
20210723040020 73 324 2.6 0.0 0.00 0.00 0.00 60 1000.2
20210723035514 73 305 2.6 0.0 0.00 0.00 0.00 60 1000.2
20210723035013 73 342 3.5 0.0 0.00 0.00 0.00 60 1000.1
20210723034519 73 336 5.2 0.0 0.00 0.00 0.00 59 1000.0
20210723034012 73 355 6.1 0.0 0.00 0.00 0.00 58 1000.0
20210723033546 74 338 6.1 0.0 0.00 0.00 0.00 57 1000.0
20210723033036 74 340 7.0 0.0 0.00 0.00 0.00 56 1000.0
20210723032522 74 333 6.1 0.0 0.00 0.00 0.00 56 999.9
20210723032009 74 342 7.0 0.0 0.00 0.00 0.00 56 999.8
20210723031511 74 305 9.6 0.0 0.00 0.00 0.00 56 999.7
20210723031018 75 339 11.3 0.0 0.00 0.00 0.00 55 999.7
20210723030511 76 304 11.3 0.0 0.00 0.00 0.00 54 999.6
20210723030026 77 306 9.6 0.0 0.00 0.00 0.00 52 999.7
20210723025518 77 315 8.7 0.0 0.00 0.00 0.00 52 999.7
20210723025027 77 285 7.8 0.0 0.00 0.00 0.00 51 999.7
20210723024605 78 336 8.7 0.0 0.00 0.00 0.00 51 999.8
20210723024018 78 274 8.7 0.0 0.00 0.00 0.00 52 999.8
20210723023517 77 284 7.0 0.0 0.00 0.00 0.00 62 999.6
20210723023049 77 192 7.0 0.0 0.00 0.00 0.00 61 997.3
20210723022515 77 176 6.1 0.0 0.00 0.00 0.00 61 996.7
20210723022015 77 225 6.1 0.0 0.00 0.00 0.00 61 996.6
20210723021521 77 194 6.1 0.0 0.00 0.00 0.00 60 996.5
20210723021015 78 179 6.1 0.0 0.00 0.00 0.00 60 996.3
20210723020516 78 192 7.0 0.0 0.00 0.00 0.00 60 996.4
20210723020043 78 178 7.0 0.0 0.00 0.00 0.00 60 996.3
20210723015514 78 152 7.0 0.0 0.00 0.00 0.00 60 996.3
20210723015020 78 205 7.8 0.0 0.00 0.00 0.00 60 996.3
20210723014605 78 204 8.7 0.0 0.00 0.00 0.00 59 996.2
20210723014018 78 210 9.6 0.0 0.00 0.00 0.00 59 996.1
20210723013517 79 155 10.4 0.0 0.00 0.00 0.00 58 995.9
20210723013046 79 167 9.6 0.0 0.00 0.00 0.00 57 995.8
20210723012513 80 159 9.6 0.0 0.00 0.00 0.00 56 995.7
20210723012034 81 175 10.4 0.0 0.00 0.00 0.00 55 995.6
20210723011518 82 175 11.3 0.0 0.00 0.00 0.00 52 995.6
20210723011017 83 178 10.4 0.0 0.00 0.00 0.00 51 995.6
20210723010540 84 161 9.6 0.0 0.00 0.00 0.00 49 995.6
20210723005558 85 229 10.4 0.0 0.00 0.00 0.00 46 995.4
20210723005122 86 174 9.6 0.0 0.00 0.00 0.00 44 995.2
20210723004558 87 186 9.6 0.0 0.00 0.00 0.00 43 995.1
20210723004040 87 231 10.4 0.0 0.00 0.00 0.00 41 995.1
20210723003540 88 153 10.4 0.0 0.00 0.00 0.00 39 995.2
20210723003238 89 194 9.6 0.0 0.00 0.00 0.00 37 995.3
20210723002540 90 177 9.6 0.0 0.00 0.00 0.00 35 995.2
20210723002039 90 164 9.6 0.0 0.00 0.00 0.00 34 995.0
20210723001636 90 161 9.6 0.0 0.00 0.00 0.00 34 995.1
20210723001059 89 198 9.6 0.0 0.00 0.00 0.00 35 995.0
20210723000547 89 169 8.7 0.0 0.00 0.00 0.00 34 995.2
20210723000126 91 178 7.8 0.0 0.00 0.00 0.00 35 994.9
20210722235504 91 184 8.7 0.0 0.00 0.00 0.00 35 994.9
20210722235008 92 207 10.4 0.0 0.00 0.00 0.00 35 995.0
20210722234504 92 164 10.4 0.0 0.00 0.00 0.00 34 995.0
20210722234003 92 171 9.6 0.0 0.00 0.00 0.00 33 995.0
20210722233504 91 154 8.7 0.0 0.00 0.00 0.00 33 994.9
20210722233010 92 182 8.7 0.0 0.00 0.00 0.00 32 994.9
20210722232515 93 172 8.7 0.0 0.00 0.00 0.00 32 994.9
20210722232004 94 182 6.1 0.0 0.00 0.00 0.00 30 994.9
20210722231508 95 157 3.5 0.0 0.00 0.00 0.00 27 994.8
20210722231004 95 195 3.5 0.0 0.00 0.00 0.00 27 994.7
20210722230510 95 186 3.5 0.0 0.00 0.00 0.00 26 994.7
20210722230005 96 190 4.3 0.0 0.00 0.00 0.00 26 994.5
20210722225506 96 164 4.3 0.0 0.00 0.00 0.00 26 994.5
20210722225005 96 184 4.3 0.0 0.00 0.00 0.00 26 994.4
20210722224506 95 173 3.5 0.0 0.00 0.00 0.00 27 994.4
20210722224004 95 161 4.3 0.0 0.00 0.00 0.00 27 994.4
20210722223503 95 182 3.5 0.0 0.00 0.00 0.00 27 994.5
20210722223036 95 196 3.5 0.0 0.00 0.00 0.00 27 994.5
20210722222504 95 198 3.5 0.0 0.00 0.00 0.00 27 994.7
20210722222003 96 209 3.5 0.0 0.00 0.00 0.00 26 994.7
20210722221506 96 191 3.5 0.0 0.00 0.00 0.00 26 994.6
20210722221002 96 227 4.3 0.0 0.00 0.00 0.00 25 994.7
20210722220503 96 214 5.2 0.0 0.00 0.00 0.00 24 994.6
20210722220013 97 225 6.1 0.0 0.00 0.00 0.00 23 994.5
20210722215133 97 220 6.1 0.0 0.00 0.00 0.00 25 994.6
20210722214649 97 181 7.0 0.0 0.00 0.00 0.00 24 994.7
20210722214055 96 212 7.0 0.0 0.00 0.00 0.00 24 994.7
20210722213554 97 257 7.0 0.0 0.00 0.00 0.00 24 994.7
20210722213243 96 232 7.0 0.0 0.00 0.00 0.00 23 994.8
20210722212606 96 223 7.0 0.0 0.00 0.00 0.00 23 994.8
20210722212526 96 215 7.0 0.0 0.00 0.00 0.00 23 994.9
20210722212052 96 238 7.0 0.0 0.00 0.00 0.00 24 994.9
20210722211742 96 230 7.0 0.0 0.00 0.00 0.00 24 995.0
20210722211051 95 207 7.0 0.0 0.00 0.00 0.00 25 995.1
20210722210552 95 215 7.0 0.0 0.00 0.00 0.00 25 995.1
20210722205113 94 181 7.0 0.0 0.00 0.00 0.00 26 995.0
20210722204107 95 227 8.7 0.0 0.00 0.00 0.00 25 995.1
20210722203556 94 231 10.4 0.0 0.00 0.00 0.00 25 995.2
20210722203503 94 179 10.4 0.0 0.00 0.00 0.00 25 995.2
20210722203131 94 196 9.6 0.0 0.00 0.00 0.00 25 995.3
20210722202600 95 230 7.8 0.0 0.00 0.00 0.00 31 995.4
20210722202105 95 239 7.0 0.0 0.00 0.00 0.00 33 995.5
20210722201622 95 213 5.2 0.0 0.00 0.00 0.00 34 995.6
20210722201052 95 293 5.2 0.0 0.00 0.00 0.00 36 995.7
20210722200552 95 249 5.2 0.0 0.00 0.00 0.00 36 995.6
20210722200131 95 269 5.2 0.0 0.00 0.00 0.00 37 995.7
20210722195100 95 329 5.2 0.0 0.00 0.00 0.00 37 995.5
20210722194653 95 236 5.2 0.0 0.00 0.00 0.00 35 995.4
20210722194501 95 241 5.2 0.0 0.00 0.00 0.00 35 995.4
20210722194059 94 243 5.2 0.0 0.00 0.00 0.00 36 995.4
20210722193604 94 214 4.3 0.0 0.00 0.00 0.00 37 995.5
20210722193143 94 219 4.3 0.0 0.00 0.00 0.00 37 995.5
20210722192557 95 243 5.2 0.0 0.00 0.00 0.00 36 995.5
20210722192058 95 265 5.2 0.0 0.00 0.00 0.00 36 995.6
20210722191725 96 254 3.5 0.0 0.00 0.00 0.00 35 995.7
20210722191100 97 207 2.6 0.0 0.00 0.00 0.00 36 995.7
20210722190554 95 240 1.7 0.0 0.00 0.00 0.00 37 995.7
20210722190135 95 329 1.7 0.0 0.00 0.00 0.00 38 995.8
20210722185034 95 312 3.5 0.0 0.00 0.00 0.00 37 995.8
20210722184559 95 248 2.6 0.0 0.00 0.00 0.00 36 995.8
20210722184030 95 309 2.6 0.0 0.00 0.00 0.00 38 995.9
20210722183537 95 221 3.5 0.0 0.00 0.00 0.00 37 996.0
20210722183052 95 239 3.5 0.0 0.00 0.00 0.00 37 996.1
20210722182527 94 201 2.6 0.0 0.00 0.00 0.00 38 996.1
20210722182030 94 243 4.3 0.0 0.00 0.00 0.00 38 996.2
20210722181616 94 258 5.2 0.0 0.00 0.00 0.00 38 996.2
20210722181026 95 229 4.3 0.0 0.00 0.00 0.00 37 996.4
20210722180526 94 205 4.3 0.0 0.00 0.00 0.00 38 996.3
20210722180028 95 276 4.3 0.0 0.00 0.00 0.00 37 996.3
20210722175505 95 265 4.3 0.0 0.00 0.00 0.00 37 996.3
20210722175005 95 240 4.3 0.0 0.00 0.00 0.00 39 996.4
20210722174502 94 188 4.3 0.0 0.00 0.00 0.00 38 996.4
20210722174003 94 185 5.2 0.0 0.00 0.00 0.00 39 996.5
20210722173502 93 198 5.2 0.0 0.00 0.00 0.00 39 996.6
20210722173143 93 135 3.5 0.0 0.00 0.00 0.00 40 996.6
20210722172558 93 229 3.5 0.0 0.00 0.00 0.00 42 996.6
20210722172056 92 192 4.3 0.0 0.00 0.00 0.00 44 996.8
20210722171706 92 198 5.2 0.0 0.00 0.00 0.00 44 996.8
20210722171106 91 163 4.3 0.0 0.00 0.00 0.00 45 996.8
20210722170558 90 155 4.3 0.0 0.00 0.00 0.00 46 996.9
20210722170135 90 163 3.5 0.0 0.00 0.00 0.00 47 997.2
20210722165058 90 232 4.3 0.0 0.00 0.00 0.00 46 997.2
20210722164715 90 149 5.2 0.0 0.00 0.00 0.00 47 997.3
20210722164103 89 166 5.2 0.0 0.00 0.00 0.00 47 997.4